map of NAN home
NAN - Airport
Location
City:  Nadi, Fiji
Name:Nadi International Airport
ICAO:NFFN
IATA:NAN

Details
Type:Airport (Aerodrome, Airfield)
Use:Public/Civil, International (customs port of entry)
Latitude:1745'19"S (-17.755391)
Longitude:17726'36"E (177.443378)
Datum:WGS 1984
Elevation:59 ft (18 m)
Variation:12.42E (WMM2015 magnetic declination)
0.04 annual change
Runways:2
Longest:10739 × 150 ft (3273 × 45.5 m), paved

Time
Time Zone:UTC+12 (DST+13)
Local Time:

Weather
METAR:NFFN 221000Z 00000KT 9999 FEW025 SCT050 25/23 Q1013 NOSIG
TAF:NFFN 220520Z 2206/2306 08005KT 9999 FEW030
BECMG 2221/2223 28010KT
BECMG 2304/2306 08005KT

Related Locations
Nearby:
Farthest:TOM: 12355 mi / 19884 km
Tombouctou (Timbuktu), 7, ML

Find:

   beyond  
but within

Other Information
Maps:
NOTAMs:
Links:
Sources:

  
flag of Fiji   

Sectional Chart

Flight Planning
at skyvector.com

Satellite Image

Google Maps Satellite view

 

Copyright © 2004-2018 Karl L. Swartz. All rights reserved.
The Great Circle Mapper name and logo are trademarks of the Great Circle Mapper.
All other trademarks mentioned herein belong to their respective owners.
Please see credits for attibutions and further copyright information.

  Follow gcmap on Facebook Follow gcmap on Twitter Follow gcmap on Google+ GCmap on LinkedIn

hCard Microformat

Geo Microformat